Skip Page Navigation
NASA JPL Caltech
NASA Logo - Jet Propulsion Laboratory + View the NASA Portal
+ Center for Near-Earth Object Studies
JPL Home Earth Solar System Stars & Galaxies Technology
JPL Solar System Dynamics
BODIES ORBITS EPHEMERIDES TOOLS PHYSICAL DATA DISCOVERY FAQ SITE MAP
IMPORTANT: The SSD Announcement email list is now available. Major changes are coming in the near future, including possible hostname and/or URL changes. To be notified of such changes, subscribe to this email list.

Please visit this page for more details.


JPL Small-Body Database Browser
Search: [ help ]  
437726 (2014 DS120)
Classification: Main-belt Asteroid          SPK-ID: 2437726
Ephemeris | Orbit Diagram | Orbital Elements | Mission Design | Physical Parameters | Discovery Circumstances | Close-Approach Data ]

[ show orbit diagram ]
Orbital Elements at Epoch 2458600.5 (2019-Apr-27.0) TDB
Reference: JPL 16 (heliocentric ecliptic J2000)
 Element Value Uncertainty (1-sigma)   Units 
e .09729701872518373 5.9713e-08  
a 3.056110930297402 5.6013e-08 au
q 2.758760447886017 1.9649e-07 au
i 10.3801514766986 6.6018e-06 deg
node 120.8688902964188 3.5921e-05 deg
peri 356.2574897937337 5.182e-05 deg
M 21.57355763314159 3.4118e-05 deg
tp 2458483.557771254716
(2018-Dec-31.05777125)
0.00018565 TDB
period 1951.426049620527
5.34
5.3649e-05
1.469e-07
d
yr
n .1844804726625461 5.0718e-09 deg/d
Q 3.353461412708787 6.1463e-08 au
  Orbit Determination Parameters
   # obs. used (total)      173  
   data-arc span      6875 days (18.82 yr)  
   first obs. used      2000-07-30  
   last obs. used      2019-05-27  
   planetary ephem.      DE431  
   SB-pert. ephem.      SB431-N16  
   condition code      0  
   norm. resid. RMS      .57458  
   source      ORB  
   producer      Otto Matic  
   solution date      2019-Sep-24 07:37:50  

Additional Information
 Earth MOID = 1.77534 au 
 Jupiter MOID = 1.73211 au 
 T_jup = 3.203 
[ show covariance matrix ]

Ephemeris | Orbit Diagram | Orbital Elements | Mission Design | Physical Parameters | Discovery Circumstances | Close-Approach Data ]

Physical Parameter Table
Parameter Symbol Value Units Sigma Reference Notes
absolute magnitude H 16.0   n/a MPO428072  

437726 (2014 DS120)          Discovered 2002-Dec-28 by Spacewatch at Kitt Peak
Reference: Last Updated: 2015-06-04

[ show close-approach data ]
Ephemeris | Orbit Diagram | Orbital Elements | Mission Design | Physical Parameters | Discovery Circumstances | Close-Approach Data ]
ABOUT SSD CREDITS/AWARDS PRIVACY/COPYRIGHT GLOSSARY LINKS
FirstGov 2019-Dec-14 00:34 UT
(server date/time)  
NASA Home Page
Site Manager:   Ryan S. Park
Webmaster  Alan B. Chamberlin